Regional Weather Roundup
Issued by NWS

Home | Current Version | Previous Version | Text Only | Print | Product List | Glossary Off
Versions: 1 2 3 4 5 6 7 8 9 10 11 12 13 14 15 16 17 18 19 20 21 22 23 24 25 26 27 28 29 30 31 32 33 34 35 36 37 38 39 40 41 42 43 44 45 46 47 48 49 50

000
ASUS43 KIND 161359
RWRIN

WEATHER ROUNDUP FOR INDIANA
NATIONAL WEATHER SERVICE INDIANAPOLIS IN
900 AM EST SAT DEC 16 2017

NOTE: "FAIR" INDICATES FEW OR NO CLOUDS BELOW 12,000 FEET WITH NO
SIGNIFICANT WEATHER AND/OR OBSTRUCTIONS TO VISIBILITY.

* - STATION DOES NOT REPORT WEATHER SUCH AS PRECIPITATION OR FOG.

+ - STATION NOT QUALITY CONTROLLED BY THE NATIONAL WEATHER SERVICE.
    USE DATA WITH CAUTION...ESPECIALLY DEWPOINT AND RELATIVE
    HUMIDITY OBSERVATIONS.

INZ001>003-010>013-019-020-161500-
NORTHWEST INDIANA

CITY           SKY/WX    TMP DP  RH WIND       PRES   REMARKS
GARY /AIRPORT/ PTCLDY    34  23  64 SW12      29.89F WCI  25
KNOX *+        PTCLDY    32  27  80 S7        29.91S WCI  26
LA PORTE +     PTCLDY    32  25  74 SW10      29.90F WCI  24
MONTICELLO +   CLEAR     32  24  71 SW9       29.93S WCI  24

$$

LMZ046-743>745-161500-
SOUTHERN LAKE MICHIGAN

STATION/POSITION TIME  TEMP    WIND        PRES    WAVE
                       AIR SEA DIR/SP/G            HT
                 (UTC) (F)     (DEG/KT/KT) (MB)    (FT)
BURNS HARBOR     1340   35     210/ 10/ 16 1012.5R
MICHIGAN CITY    1330   36     200/ 16/ 18   N/A

$$

INZ004-005-014>016-021>024-161500-
NORTH CENTRAL INDIANA

CITY           SKY/WX    TMP DP  RH WIND       PRES   REMARKS
ELKHART        PTCLDY    34  25  69 SW8       29.90S WCI  27
GOSHEN         CLOUDY    34  26  72 SW13      29.90F WCI  25
PERU/GRISSOM   CLEAR     33  26  73 SW14      29.93R WCI  24
SOUTH BEND     CLOUDY    33  27  78 SW10      29.90R WCI  25
WARSAW +       CLOUDY    34  27  75 SW7       29.92S WCI  28

$$

INZ006>009-017-018-025>027-161500-
NORTHEAST INDIANA

CITY           SKY/WX    TMP DP  RH WIND       PRES   REMARKS
AUBURN +       CLOUDY    36  27  69 SW7       29.92F WCI  30
FORT WAYNE     CLOUDY    33  27  78 SW13      29.94S WCI  24

$$

INZ028-029-035-036-043>045-051>053-161500-
WEST CENTRAL INDIANA

CITY           SKY/WX    TMP DP  RH WIND       PRES   REMARKS
LAFAYETTE      CLEAR     33  26  75 SW6       29.95F WCI  28
TERRE HAUTE    CLEAR     34  26  72 S14G23    30.01S WCI  25

$$

INZ030>032-037>040-046>048-054>057-064-065-161500-
CENTRAL INDIANA

CITY           SKY/WX    TMP DP  RH WIND       PRES   REMARKS
ANDERSON       CLEAR     32  27  80 S17G23    29.98  WCI  21
COLUMBUS       CLEAR     30  25  80 S7        30.05F WCI  23
FRANKFORT +    CLEAR     35  28  73 SW15      29.96S WCI  26
GREENWOOD *+   CLEAR     35  29  79 S9        30.03R WCI  27
INDIANAPOLIS   CLEAR     33  26  75 SW15      30.01R WCI  23
-EAGLE CREEK   CLEAR     34  25  69 SW10G21   29.99S WCI  26
KOKOMO +       CLEAR     34  25  69 SW12      29.96R WCI  25
MT COMFORT *+  CLEAR     30  28  93 S12       30.01R WCI  21
SHELBYVILLE    CLEAR     31  24  75 S13       30.03R WCI  21

$$

INZ033-034-041-042-049-050-058-059-161500-
EAST CENTRAL INDIANA

CITY           SKY/WX    TMP DP  RH WIND       PRES   REMARKS
MUNCIE         CLEAR     35  25  66 SW15G24   29.97R WCI  25
RICHMOND +     CLEAR     28  27  93 S10       30.01F WCI  19

$$

INZ060-061-067>069-081>083-085>088-161500-
SOUTHWEST INDIANA

CITY           SKY/WX    TMP DP  RH WIND       PRES   REMARKS
EVANSVILLE     CLEAR     34  29  82 S14       30.13R WCI  25
HUNTINGBURG +  CLEAR     33  27  78 S13       30.12S WCI  24

$$

INZ062-063-066-070>080-084-089>092-161500-
SOUTH CENTRAL AND SOUTHEAST INDIANA

CITY           SKY/WX    TMP DP  RH WIND       PRES   REMARKS
BLOOMINGTON    CLEAR     33  25  72 SW14      30.04S WCI  23
SEYMOUR +      CLEAR     34  27  75 SW12      30.08S WCI  25

$$





USA.gov is the U.S. government's official web portal to all federal, state and local government web resources and services.